KB3YTV Weather Reports


time (UTC)temp
F
wind
direction
speed
knots
gust
knots
rain 1hr
in
rain 24hr
in
rain mn
in
humidity
%
barometer
mb
20260504081539 35 0 0.0 0.0 0.00 0.00 0.00 86 1014.1
20260504044532 39 0 0.0 0.0 0.00 0.00 0.00 78 1013.7
20260504043046 39 0 0.0 0.0 0.00 0.00 0.00 79 1013.7
20260504041536 40 0 0.0 0.0 0.00 0.00 0.00 77 1013.7
20260504040036 41 0 0.0 0.0 0.00 0.00 0.00 76 1013.7
20260504034540 41 0 0.0 0.0 0.00 0.00 0.00 76 1013.5
20260504033034 42 0 0.0 0.9 0.00 0.00 0.00 76 1013.4
20260504031541 42 274 0.0 0.9 0.00 0.00 0.00 74 1013.3
20260504030050 42 0 0.0 0.0 0.00 0.00 0.00 74 1013.2
20260504024539 43 0 0.0 0.0 0.00 0.00 0.00 73 1013.2
20260504023035 44 0 0.0 0.0 0.00 0.00 0.00 71 1013.2
20260504021546 44 0 0.0 0.0 0.00 0.00 0.00 68 1013.2
20260504020041 46 0 0.0 0.9 0.00 0.00 0.00 65 1013.3
20260504014536 47 0 0.0 0.0 0.00 0.00 0.00 63 1013.3
20260504013037 48 0 0.0 0.0 0.00 0.00 0.00 62 1013.1
20260504011535 50 0 0.0 0.0 0.00 0.00 0.00 52 1013.0
20260504010034 52 0 0.0 0.0 0.00 0.00 0.00 51 1012.9
20260504004541 53 0 0.0 0.9 0.00 0.00 0.00 48 1012.8
20260504003033 54 280 0.0 0.9 0.00 0.00 0.00 46 1012.7
20260504001539 55 269 0.0 1.7 0.00 0.00 0.00 45 1012.5
20260504000035 56 274 0.9 4.3 0.00 0.00 0.00 42 1012.3
20260503234539 57 287 2.6 4.3 0.00 0.00 0.00 40 1012.1
20260503233041 58 277 1.7 4.3 0.00 0.00 0.00 39 1012.1
20260503231533 58 283 3.5 7.0 0.00 0.00 0.00 39 1012.1
20260503230056 59 283 3.5 7.0 0.00 0.00 0.00 39 1011.9
20260503224535 59 277 3.5 12.2 0.00 0.00 0.00 38 1011.9
20260503223036 59 291 3.5 7.0 0.00 0.00 0.00 38 1011.8
20260503221535 59 274 3.5 6.1 0.00 0.00 0.00 38 1011.8
20260503220038 60 279 5.2 13.9 0.00 0.00 0.00 36 1011.9
20260503214552 59 281 3.5 9.6 0.00 0.00 0.00 38 1011.8
20260503213035 59 290 3.5 6.1 0.00 0.00 0.00 38 1011.7
20260503211532 59 293 6.1 17.4 0.00 0.00 0.00 37 1011.6
20260503210035 59 296 3.5 10.4 0.00 0.00 0.00 37 1011.7
20260503204540 58 291 5.2 13.9 0.00 0.00 0.00 39 1011.6
20260503203035 59 299 4.3 11.3 0.00 0.00 0.00 38 1011.7
20260503201535 58 289 2.6 9.6 0.00 0.00 0.00 39 1011.8
20260503200035 59 300 4.3 8.7 0.00 0.00 0.00 39 1012.0
20260503194548 58 270 3.5 16.5 0.00 0.00 0.00 38 1012.0
20260503193034 58 274 2.6 6.1 0.00 0.00 0.00 35 1012.3
20260503191535 57 286 3.5 13.0 0.00 0.00 0.00 40 1012.4
20260503190040 57 297 5.2 13.9 0.00 0.00 0.00 35 1012.7
20260503184534 57 319 6.1 13.0 0.00 0.00 0.00 36 1012.9
20260503183039 57 307 7.0 15.6 0.00 0.00 0.00 37 1013.3
20260503181552 56 295 4.3 8.7 0.00 0.00 0.00 39 1013.1
20260503180044 55 277 3.5 13.9 0.00 0.00 0.00 38 1013.3
20260503174532 56 261 6.1 14.8 0.00 0.00 0.00 44 1013.4
20260503173035 54 300 6.1 14.8 0.00 0.00 0.00 39 1013.5
20260503171534 53 273 2.6 10.4 0.00 0.00 0.00 41 1013.7